Date,TemperatureHighF,TemperatureAvgF,TemperatureLowF,DewpointHighF,DewpointAvgF,DewpointLowF,HumidityHigh,HumidityAvg,HumidityLow,PressureMaxIn,PressureMinIn,WindSpeedMaxMPH,WindSpeedAvgMPH,GustSpeedMaxMPH,PrecipitationSumIn
2013-1-1,47.9,42.4,38.0,35.6,29.9,24.8,71,61,50,30.06,29.90,2,0,4,0.00
2013-1-2,41.4,37.4,32.4,30.5,27.4,19.2,75,67,58,30.24,29.99,3,0,4,0.00
2013-1-3,40.0,32.8,25.5,22.3,18.7,16.0,77,56,43,30.27,30.17,3,0,4,0.00
2013-1-4,44.4,34.3,23.9,23.5,19.3,17.0,78,56,38,30.26,30.15,4,0,9,0.00
2013-1-5,49.3,37.4,25.4,31.3,20.1,16.9,75,52,29,30.39,30.20,4,0,6,0.01
2013-1-6,50.6,41.9,31.2,32.7,28.8,25.3,84,61,40,30.21,30.05,5,0,9,0.01
2013-1-7,47.4,38.7,27.4,30.9,26.1,20.8,77,61,45,30.45,30.16,4,0,6,0.00
2013-1-8,50.0,35.4,23.8,33.6,26.4,18.8,84,71,52,30.47,30.38,3,0,5,0.00
2013-1-9,59.0,43.0,28.6,46.7,34.9,23.6,88,74,60,30.41,30.28,2,0,4,0.00
2013-1-10,57.3,47.1,33.9,33.2,29.8,25.6,76,53,34,30.58,30.49,3,0,6,0.00
2013-1-11,43.1,40.3,34.2,40.9,34.5,27.0,92,80,64,30.49,30.11,2,0,3,0.05
2013-1-12,50.9,45.0,41.2,46.8,42.4,39.3,95,91,84,30.19,30.11,2,0,3,0.00
2013-1-13,65.8,54.6,45.9,60.4,52.0,43.4,96,91,82,30.14,29.99,2,0,3,0.01
2013-1-14,62.3,54.7,41.2,60.8,52.0,37.9,95,91,87,30.29,29.99,5,0,6,0.15
2013-1-15,41.1,38.5,37.3,37.8,36.4,35.4,93,92,88,30.34,30.14,4,0,6,0.88
2013-1-16,43.5,39.3,35.7,41.8,37.6,33.8,94,94,93,30.15,29.90,2,0,4,0.35
2013-1-17,44.5,39.0,32.7,43.1,37.2,30.7,95,94,92,30.14,29.98,3,0,5,0.68
2013-1-18,37.9,32.6,27.4,31.2,27.6,24.2,94,83,58,30.52,30.12,2,0,5,0.15
2013-1-19,50.2,37.3,27.8,32.3,27.1,23.2,85,68,47,30.46,30.05,5,0,6,0.11
2013-1-20,58.5,43.4,31.3,34.8,24.9,12.6,78,51,27,30.08,29.89,10,1,16,0.00
2013-1-21,52.4,40.2,26.9,25.4,16.2,3.9,69,39,22,30.09,29.78,7,1,14,0.00
2013-1-22,33.9,24.6,16.6,7.7,-0.9,-6.0,54,32,23,30.32,29.95,6,1,11,0.00
2013-1-23,30.9,21.0,10.6,14.7,2.3,-1.0,70,46,25,30.37,30.14,4,0,6,0.00
2013-1-24,27.5,20.1,12.9,15.8,8.7,0.0,82,64,30,30.57,30.08,9,0,14,0.01
2013-1-25,24.0,18.5,11.2,16.7,9.7,3.3,78,69,48,30.56,30.10,2,0,4,0.00
2013-1-26,37.1,28.6,21.0,23.9,19.7,15.0,81,70,54,30.46,30.10,3,0,5,0.02
2013-1-27,37.5,30.2,22.4,22.8,20.3,16.4,83,68,49,30.62,30.46,4,0,9,0.00
2013-1-28,48.8,38.8,31.3,40.6,32.9,22.2,92,80,68,30.50,30.12,3,0,5,0.26
2013-1-29,72.4,55.2,39.9,54.6,45.4,35.4,92,71,52,30.16,29.98,3,0,5,0.00
2013-1-30,70.1,63.3,57.0,61.5,57.2,50.3,95,81,67,29.98,29.24,7,1,12,0.92
2013-1-31,63.0,46.3,36.9,61.5,29.3,13.2,95,54,33,29.87,29.23,18,3,21,0.21